Vorticity
nan nan nan nan nan nan nan nan nan nan nan nan nan nan nan nan nan nan nan nan nan nan nan nan nan nan nan nan nan nan nan nan nan nan nan nan nan nan nan nan nan nan nan
nan 5 5 6 5 9 8 6 6 7 7 6 6 5 5 5 4 4 4 5 6 6 6 5 6 6 5 4 4 5 5 4 4 3 3 0 2 4 6 7 7 6 nan
nan 5 3 5 5 6 7 7 7 6 6 6 6 5 5 5 5 4 6 6 7 7 5 4 5 5 6 5 5 7 6 5 4 0 -1 1 2 4 5 6 6 6 nan
nan 5 9 9 5 7 9 6 4 4 5 6 6 5 5 5 6 6 7 7 5 6 6 5 4 4 3 4 5 5 5 4 3 4 3 6 5 5 5 5 5 5 nan
nan 8 15 8 7 6 7 9 9 6 3 3 6 5 6 5 6 7 6 6 5 6 6 5 4 3 3 3 5 5 5 3 2 5 3 4 5 7 8 7 4 4 nan
nan 10 5 6 7 7 9 12 6 9 12 17 0 1 6 6 5 5 6 6 5 6 7 4 4 3 3 5 5 4 3 1 3 3 9 8 5 7 6 7 7 6 nan
nan 7 5 9 9 10 12 11 6 8 3 5 6 7 7 7 4 4 5 6 8 7 7 5 4 4 4 5 4 2 1 5 16 6 4 6 8 6 5 5 5 6 nan
nan 6 10 3 7 14 17 7 4 4 9 2 4 4 2 4 4 4 5 6 7 7 7 6 5 5 4 4 3 5 6 9 10 5 6 6 9 6 5 5 5 6 nan
nan 8 8 6 3 5 10 11 12 10 10 3 7 9 6 12 3 1 4 7 6 7 6 6 5 5 5 3 4 1 1 13 14 6 6 7 8 6 5 5 5 5 nan
nan 8 9 8 5 7 3 5 12 16 9 4 10 12 17 9 4 4 6 6 6 6 6 5 6 6 5 3 3 4 3 16 10 6 4 10 9 6 5 5 5 5 nan
nan 8 9 9 5 4 5 3 4 3 12 18 11 6 12 10 11 5 6 6 7 6 6 6 6 5 2 4 6 4 5 15 4 4 9 10 7 5 5 5 5 5 nan
nan 7 6 11 12 6 6 7 7 5 8 10 9 7 5 12 10 7 5 3 3 4 3 4 4 4 3 2 3 5 16 4 7 8 10 10 7 6 5 5 6 5 nan
nan 6 7 7 11 13 11 6 6 9 7 8 8 7 5 7 6 5 4 3 4 2 2 5 1 4 6 6 5 9 10 7 6 8 9 9 7 6 5 5 5 5 nan
nan 7 7 7 7 10 8 8 10 7 7 10 9 6 3 10 10 6 7 7 5 6 7 3 4 8 8 7 5 9 4 8 8 8 8 8 8 6 5 5 5 5 nan
nan 10 9 7 6 7 6 8 9 8 12 12 11 8 11 11 7 8 7 7 6 7 7 5 9 8 7 5 9 6 6 8 7 7 9 7 8 7 5 5 4 4 nan
nan 11 6 7 8 7 8 9 9 12 12 9 12 15 11 7 11 10 7 7 8 6 6 8 8 8 7 8 8 7 8 7 7 6 8 8 7 6 7 5 4 4 nan
nan 9 7 8 7 8 10 9 10 12 10 9 9 12 12 6 7 9 10 7 8 10 5 8 8 7 8 8 7 7 8 6 8 8 6 7 7 7 7 6 5 4 nan
nan 6 7 7 7 9 9 9 11 11 12 12 9 6 7 4 7 9 9 10 7 8 8 7 7 7 7 8 7 8 7 7 6 7 6 6 7 6 7 9 7 6 nan
nan 7 8 7 7 9 8 7 10 10 11 10 8 9 7 5 5 6 8 9 7 8 8 7 6 7 8 9 7 7 7 8 7 6 7 8 7 5 8 11 6 6 nan
nan 9 7 7 8 7 7 7 7 6 7 8 9 11 5 7 5 5 9 8 7 5 10 9 8 9 8 9 8 6 7 7 7 7 7 7 6 6 8 7 8 8 nan
nan 8 7 6 5 7 8 8 8 7 7 8 9 7 5 9 7 7 6 5 8 8 8 7 9 8 7 8 7 8 8 7 7 7 8 8 8 8 6 5 8 9 nan
nan 5 7 7 6 5 8 9 8 9 7 8 10 9 9 7 7 8 8 8 5 8 9 7 7 7 8 8 6 6 7 9 10 9 7 7 8 9 9 8 5 6 nan
nan 8 8 7 5 5 8 8 8 6 7 8 8 10 11 10 8 4 8 8 7 7 9 9 8 6 6 7 5 4 5 7 12 14 8 9 9 7 9 10 9 8 nan
nan 9 9 7 7 7 6 9 9 4 5 6 8 8 6 7 6 6 8 7 9 7 7 7 7 5 7 6 7 4 4 8 8 8 11 11 8 9 9 10 12 9 nan
nan 10 9 9 9 8 4 6 8 7 5 8 10 9 6 5 8 9 6 7 6 7 7 8 8 7 5 7 8 8 8 8 6 5 9 9 10 10 8 8 9 13 nan
nan nan nan nan nan nan nan nan nan nan nan nan nan nan nan nan nan nan nan nan nan nan nan nan nan nan nan nan nan nan nan nan nan nan nan nan nan nan nan nan nan nan nan
CAPE
1584 1664 1524 1603 1729 2020 2037 1744 1638 1588 1649 1764 1707 1424 1286 1483 1468 1318 1148 1114 1072 981 405 323 489 534 333 90 20 293 398 310 229 254 217 59 49 33 35 175 89 35 135
1864 1864 1515 1762 1796 2025 2185 1921 1715 1671 1799 1936 1692 1466 1517 1601 1567 1372 1355 1291 1145 1031 435 374 350 294 116 48 168 199 126 95 134 160 191 35 31 28 14 18 39 13 21
1867 1845 1721 1614 1682 2064 2319 2080 1851 1838 1980 2014 1725 1603 1683 1750 1656 1510 1437 1282 1144 983 449 296 213 119 75 71 141 171 113 77 99 138 69 16 20 16 14 12 20 11 16
1782 2090 2032 1592 1757 1949 2169 1754 1822 2008 2134 1997 1704 1696 1833 1906 1715 1614 1387 1102 1077 1023 395 155 49 55 43 21 32 135 142 128 51 45 13 14 18 15 10 8 8 12 10
1637 1890 2261 1615 1688 2002 1902 1684 1595 1687 1416 1582 1612 1859 1970 2007 1814 1574 1303 1072 1022 942 392 144 75 28 8 16 19 28 26 35 38 17 15 17 22 13 12 7 9 10 20
1299 1873 1598 1445 1700 1983 1667 1313 1198 861 702 839 1300 1476 1692 1565 1660 1156 981 874 868 926 540 174 87 17 11 7 7 11 7 0 20 8 6 18 12 31 20 5 5 7 24
1252 1486 1869 1211 1367 1939 1985 1226 678 385 444 126 69 535 970 1102 1302 1078 864 781 795 744 499 161 38 2 0 0 0 0 0 0 11 6 6 8 19 18 22 19 16 14 15
1115 1333 1474 1105 871 1054 1427 917 551 496 194 156 154 601 637 748 660 755 722 654 525 283 174 80 31 1 0 0 0 0 0 0 12 9 4 10 25 21 20 17 16 14 14
874 1067 1387 1659 1010 337 764 638 522 373 332 501 254 312 249 443 416 538 685 539 417 192 66 16 13 5 0 0 0 0 0 3 10 4 5 11 25 18 18 14 15 15 15
661 913 1102 1431 1439 1056 978 214 208 291 226 221 308 175 138 197 359 399 534 477 273 128 37 13 5 0 0 0 0 0 0 1 5 4 3 12 24 22 19 14 14 14 14
529 689 887 1095 1118 897 916 691 188 192 192 176 140 83 2 168 288 395 343 252 137 57 10 10 4 1 0 0 0 0 0 11 9 4 2 30 27 25 22 18 14 13 12
535 554 546 586 805 955 563 609 481 411 340 386 192 163 122 143 249 367 335 124 74 56 15 8 2 0 0 0 0 0 7 16 22 5 7 36 21 25 19 13 12 12 11
483 306 220 64 15 510 682 464 382 636 402 236 178 117 93 117 125 342 299 238 85 4 0 0 0 0 0 0 0 2 7 9 19 5 12 33 27 21 18 12 7 7 7
276 22 31 6 2 3 1 31 504 828 676 192 55 40 111 90 88 311 314 176 21 5 0 0 0 5 0 0 0 1 1 13 21 5 10 19 33 16 14 10 7 4 2
305 3 4 9 5 3 5 34 69 370 627 159 100 37 70 47 57 99 190 158 27 31 21 2 12 0 0 0 0 0 2 10 12 2 4 16 21 20 9 9 5 2 1
182 37 1 10 9 5 1 2 110 186 291 106 36 3 2 0 32 82 185 159 207 102 67 59 32 0 0 0 0 2 4 4 12 3 3 12 22 24 15 4 1 0 0
155 97 9 10 9 4 26 10 9 68 10 9 3 2 0 0 3 31 152 194 241 220 233 152 47 0 0 0 0 0 0 1 7 11 1 4 5 10 11 14 2 0 0
138 55 2 4 4 12 16 13 9 5 5 1 4 4 0 0 0 0 86 173 237 261 164 86 40 2 0 0 0 0 0 0 3 12 12 7 1 2 2 15 13 5 0
105 29 1 5 4 16 20 13 4 4 9 4 3 2 0 0 0 3 81 89 97 118 102 91 55 39 11 0 0 0 0 0 0 0 8 11 10 4 0 0 0 5 10
66 4 13 7 5 29 16 14 8 3 3 2 4 0 0 9 21 63 52 25 7 0 45 23 33 11 9 0 0 0 0 0 0 0 1 1 5 3 9 13 0 0 11
85 5 11 9 9 31 10 14 19 23 18 1 0 0 4 37 42 50 36 43 1 2 0 9 19 24 0 0 0 0 0 0 0 0 0 0 0 0 3 2 22 4 0
87 6 8 9 8 20 16 12 5 3 10 10 6 6 21 21 37 105 140 62 20 8 8 28 64 7 0 0 0 0 0 0 0 0 0 0 0 0 1 4 6 1 1
54 2 2 10 15 27 26 17 16 29 51 56 18 3 25 27 40 68 206 83 107 84 109 173 140 65 41 1 0 81 129 140 78 0 0 0 0 0 0 0 1 0 0
228 3 21 8 12 24 37 14 10 3 9 12 2 9 58 97 42 2 57 124 98 111 156 188 163 248 221 88 15 3 77 113 112 142 27 0 0 0 0 0 0 0 0
382 6 19 15 9 16 33 11 11 0 0 0 0 17 83 111 102 41 6 146 257 223 299 343 314 196 177 180 139 91 56 50 169 74 29 69 0 0 0 0 0 0 0
351 63 20 19 13 14 16 15 4 4 3 28 18 23 42 51 51 55 70 192 205 303 310 380 343 255 322 338 210 296 198 119 53 115 102 215 142 27 4 0 0 0 2